Location: Paris
(48.6709°N, 2.3750°E)
Time: 08:01:10
(UTC+02:00)

CUBESAT XI-V - Pass Details

Date: 04 July 2022
Orbit: 668 x 690 km, 98.1° (Epoch: 18 August)

Event Time Altitude Azimuth Distance (km) Brightness Sun altitude
Exits shadow 03:28:30 20° 166° (SSE) 1,558 ? -15.4°
Maximum altitude 03:31:44 87° 251° (WSW) 679 ? -15.2°
Drops below altitude 10° 03:36:21 10° 345° (NNW) 2,109 ? -14.9°
Sets 03:38:36 0° 346° (NNW) 3,025 ? -14.8°
